User: anonymous   Login
Location: Theydon Bois
(51.6750°N, 0.1050°E)
Time: 22:58:09
(UTC+01:00)
Language:

Cosmos 1315 Rocket - Orbit

View from above orbital plane
View from above orbital plane
View from above satellite
View from above satellite

Ground track
Ground track

The orbit data is extracted from the following two-line orbital elements,

1 12904U 81103B   18173.93457369 +.00000174 +00000-0 +10446-4 0  9996
2 12904 081.1766 212.0674 0027284 285.4666 074.3544 15.05515649548385
Epoch (UTC): 22 June 2018 22:25:47
Eccentricity: 0.0027284
inclination: 81.1766°
perigee height: 531 km
apogee height: 569 km
right ascension of ascending node: 212.0674°
argument of perigee: 285.4666°
revolutions per day: 15.05515649
mean anomaly at epoch: 74.3544°
orbit number at epoch: 54838

The dashed part of the orbit path shows where the satellite is in the earth's shadow,  

DLR